Time,TemperatureF,DewpointF,PressureIn,WindDirection,WindDirectionDegrees,WindSpeedMPH,WindSpeedGustMPH,Humidity,HourlyPrecipIn,Conditions,Clouds,dailyrainin,SoftwareType,DateUTC
2013-03-10 00:09:00,64.9,62.0,29.85,South,183,1.0,5.0,91,0.00,,,0.00,weatherlink.com 1.10,2013-03-10 06:09:00,
2013-03-10 00:24:00,65.0,62.0,29.86,SE,134,1.0,4.0,91,0.00,,,0.00,weatherlink.com 1.10,2013-03-10 06:24:00,
2013-03-10 00:39:00,65.0,62.0,29.86,SSW,194,2.0,3.0,91,0.00,,,0.00,weatherlink.com 1.10,2013-03-10 06:39:00,
2013-03-10 00:54:00,65.2,63.0,29.87,SE,145,1.0,5.0,92,0.00,,,0.00,weatherlink.com 1.10,2013-03-10 06:54:00,
2013-03-10 01:09:00,65.2,63.0,29.87,SSE,155,1.0,3.0,92,0.00,,,0.00,weatherlink.com 1.10,2013-03-10 07:09:00,
2013-03-10 01:24:00,65.4,63.0,29.86,ESE,109,1.0,3.0,92,0.00,,,0.00,weatherlink.com 1.10,2013-03-10 07:24:00,
2013-03-10 01:39:00,65.4,63.0,29.86,SSE,156,2.0,4.0,92,0.00,,,0.00,weatherlink.com 1.10,2013-03-10 07:39:00,
2013-03-10 01:54:00,65.8,64.0,29.86,South,170,3.0,7.0,92,0.00,,,0.00,weatherlink.com 1.10,2013-03-10 07:54:00,
2013-03-10 03:09:00,65.8,63.0,29.85,SSE,149,0.0,6.0,91,0.00,,,0.00,weatherlink.com 1.10,2013-03-10 08:09:00,
2013-03-10 03:24:00,65.7,63.0,29.85,ESE,110,0.0,6.0,91,0.00,,,0.00,weatherlink.com 1.10,2013-03-10 08:24:00,
2013-03-10 03:39:00,65.6,63.0,29.83,ESE,105,1.0,6.0,91,0.00,,,0.00,weatherlink.com 1.10,2013-03-10 08:39:00,
2013-03-10 03:54:00,65.4,63.0,29.81,SE,145,5.0,8.0,92,0.00,,,0.00,weatherlink.com 1.10,2013-03-10 08:54:00,
2013-03-10 04:09:00,65.6,63.0,29.81,SSE,156,5.0,10.0,91,0.00,,,0.00,weatherlink.com 1.10,2013-03-10 09:09:00,
2013-03-10 04:24:00,65.8,63.0,29.80,ESE,117,1.0,9.0,90,0.00,,,0.00,weatherlink.com 1.10,2013-03-10 09:24:00,
2013-03-10 04:39:00,65.1,63.0,29.81,ESE,115,0.0,5.0,91,0.00,,,0.00,weatherlink.com 1.10,2013-03-10 09:39:00,
2013-03-10 04:54:00,64.9,63.0,29.81,ESE,113,4.0,5.0,92,0.00,,,0.00,weatherlink.com 1.10,2013-03-10 09:54:00,
2013-03-10 05:09:00,64.7,62.0,29.82,SE,139,1.0,7.0,92,0.00,,,0.00,weatherlink.com 1.10,2013-03-10 10:09:00,
2013-03-10 05:24:00,64.5,63.0,29.80,East,98,3.0,9.0,93,0.00,,,0.00,weatherlink.com 1.10,2013-03-10 10:24:00,
2013-03-10 05:39:00,64.4,62.0,29.80,SE,133,1.0,7.0,93,0.00,,,0.00,weatherlink.com 1.10,2013-03-10 10:39:00,
2013-03-10 05:54:00,64.1,62.0,29.81,South,179,0.0,5.0,93,0.00,,,0.00,weatherlink.com 1.10,2013-03-10 10:54:00,
2013-03-10 06:09:00,63.9,62.0,29.80,South,178,3.0,4.0,94,0.00,,,0.00,weatherlink.com 1.10,2013-03-10 11:09:00,
2013-03-10 06:24:00,64.0,62.0,29.80,ESE,119,2.0,6.0,94,0.00,,,0.00,weatherlink.com 1.10,2013-03-10 11:24:00,
2013-03-10 06:39:00,64.0,62.0,29.81,SW,219,1.0,6.0,94,0.00,,,0.00,weatherlink.com 1.10,2013-03-10 11:39:00,
2013-03-10 06:54:00,64.0,62.0,29.83,SSW,203,0.0,1.0,94,0.00,,,0.00,weatherlink.com 1.10,2013-03-10 11:54:00,
2013-03-10 07:09:00,63.9,62.0,29.84,SSW,197,0.0,1.0,94,0.00,,,0.00,weatherlink.com 1.10,2013-03-10 12:09:00,
2013-03-10 07:24:00,63.9,62.0,29.84,SSW,197,0.0,2.0,94,0.00,,,0.00,weatherlink.com 1.10,2013-03-10 12:24:00,
2013-03-10 07:39:00,64.1,62.0,29.84,South,188,4.0,6.0,94,0.00,,,0.00,weatherlink.com 1.10,2013-03-10 12:39:00,
2013-03-10 07:54:00,64.2,63.0,29.84,South,187,3.0,6.0,94,0.00,,,0.00,weatherlink.com 1.10,2013-03-10 12:54:00,
2013-03-10 08:10:00,64.3,63.0,29.84,SSE,149,3.0,8.0,94,0.00,,,0.00,weatherlink.com 1.10,2013-03-10 13:10:00,
2013-03-10 08:25:00,64.9,63.0,29.85,SSE,161,8.0,10.0,92,0.00,,,0.00,weatherlink.com 1.10,2013-03-10 13:25:00,
2013-03-10 08:40:00,65.6,63.0,29.85,SSE,163,4.0,9.0,91,0.00,,,0.00,weatherlink.com 1.10,2013-03-10 13:40:00,
2013-03-10 08:55:00,66.4,64.0,29.85,South,174,5.0,12.0,90,0.01,,,0.01,weatherlink.com 1.10,2013-03-10 13:55:00,
2013-03-10 09:10:00,67.7,64.0,29.85,South,176,6.0,14.0,89,0.01,,,0.01,weatherlink.com 1.10,2013-03-10 14:10:00,
2013-03-10 09:25:00,68.8,65.0,29.85,SSW,205,10.0,13.0,87,0.01,,,0.01,weatherlink.com 1.10,2013-03-10 14:25:00,
2013-03-10 09:40:00,69.8,65.0,29.84,SE,142,5.0,19.0,85,0.01,,,0.01,weatherlink.com 1.10,2013-03-10 14:40:00,
2013-03-10 09:55:00,70.6,65.0,29.85,SSW,197,9.0,19.0,83,0.00,,,0.01,weatherlink.com 1.10,2013-03-10 14:55:00,
2013-03-10 10:10:00,70.8,65.0,29.84,SSE,162,11.0,18.0,83,0.00,,,0.01,weatherlink.com 1.10,2013-03-10 15:10:00,
2013-03-10 10:25:00,71.6,66.0,29.83,SE,145,11.0,19.0,81,0.00,,,0.01,weatherlink.com 1.10,2013-03-10 15:25:00,
2013-03-10 10:40:00,72.7,66.0,29.82,South,170,10.0,23.0,79,0.00,,,0.01,weatherlink.com 1.10,2013-03-10 15:40:00,
2013-03-10 10:55:00,73.0,66.0,29.83,SSE,158,8.0,18.0,79,0.00,,,0.01,weatherlink.com 1.10,2013-03-10 15:55:00,
2013-03-10 11:10:00,72.4,66.0,29.83,SSE,155,12.0,16.0,80,0.00,,,0.01,weatherlink.com 1.10,2013-03-10 16:10:00,
2013-03-10 11:25:00,71.7,66.0,29.84,SSE,166,9.0,16.0,82,0.00,,,0.01,weatherlink.com 1.10,2013-03-10 16:25:00,
2013-03-10 11:40:00,71.6,66.0,29.84,SW,221,8.0,16.0,82,0.00,,,0.01,weatherlink.com 1.10,2013-03-10 16:40:00,
2013-03-10 11:55:00,71.7,66.0,29.84,SSE,152,10.0,15.0,83,0.00,,,0.01,weatherlink.com 1.10,2013-03-10 16:55:00,
2013-03-10 12:10:00,71.6,66.0,29.85,SE,141,7.0,14.0,83,0.00,,,0.01,weatherlink.com 1.10,2013-03-10 17:10:00,
2013-03-10 12:25:00,71.2,66.0,29.85,SW,215,4.0,11.0,84,0.00,,,0.01,weatherlink.com 1.10,2013-03-10 17:25:00,
2013-03-10 12:40:00,70.7,66.0,29.84,SSW,192,3.0,12.0,85,0.00,,,0.01,weatherlink.com 1.10,2013-03-10 17:40:00,
2013-03-10 12:55:00,69.9,66.0,29.84,ESE,117,4.0,12.0,88,0.00,,,0.01,weatherlink.com 1.10,2013-03-10 17:55:00,
2013-03-10 13:10:00,65.9,60.0,29.87,NW,322,3.0,13.0,81,0.01,,,0.02,weatherlink.com 1.10,2013-03-10 18:10:00,
2013-03-10 13:25:00,57.8,55.0,29.88,WNW,302,3.0,12.0,90,0.19,,,0.20,weatherlink.com 1.10,2013-03-10 18:25:00,
2013-03-10 13:40:00,56.2,54.0,29.87,NW,304,3.0,14.0,93,0.32,,,0.33,weatherlink.com 1.10,2013-03-10 18:40:00,
2013-03-10 13:55:00,56.1,54.0,29.87,WNW,283,7.0,10.0,94,0.36,,,0.37,weatherlink.com 1.10,2013-03-10 18:55:00,
2013-03-10 14:10:00,55.9,54.0,29.87,NNW,341,1.0,6.0,94,0.37,,,0.39,weatherlink.com 1.10,2013-03-10 19:10:00,
2013-03-10 14:25:00,56.1,54.0,29.87,NNW,347,0.0,10.0,94,0.22,,,0.42,weatherlink.com 1.10,2013-03-10 19:25:00,
2013-03-10 14:40:00,56.2,55.0,29.86,North,5,0.0,5.0,94,0.09,,,0.42,weatherlink.com 1.10,2013-03-10 19:40:00,
2013-03-10 14:55:00,56.3,55.0,29.86,NNW,347,2.0,4.0,95,0.06,,,0.43,weatherlink.com 1.10,2013-03-10 19:55:00,
2013-03-10 15:10:00,56.1,55.0,29.85,NNW,348,2.0,7.0,95,0.05,,,0.44,weatherlink.com 1.10,2013-03-10 20:10:00,
2013-03-10 15:25:00,55.9,54.0,29.86,NNW,331,1.0,8.0,94,0.10,,,0.52,weatherlink.com 1.10,2013-03-10 20:25:00,
2013-03-10 15:40:00,55.8,54.0,29.86,NNW,333,0.0,4.0,95,0.32,,,0.74,weatherlink.com 1.10,2013-03-10 20:40:00,
2013-03-10 15:55:00,55.9,55.0,29.85,North,350,0.0,1.0,95,0.40,,,0.83,weatherlink.com 1.10,2013-03-10 20:55:00,
2013-03-10 16:11:00,56.1,55.0,29.85,ENE,78,0.0,1.0,95,0.46,,,0.90,weatherlink.com 1.10,2013-03-10 21:11:00,
2013-03-10 16:26:00,56.3,55.0,29.85,NE,40,0.0,1.0,95,0.47,,,0.99,weatherlink.com 1.10,2013-03-10 21:26:00,
2013-03-10 16:41:00,56.8,55.0,29.85,NNE,32,0.0,1.0,95,0.24,,,1.00,weatherlink.com 1.10,2013-03-10 21:41:00,
2013-03-10 16:56:00,56.9,56.0,29.85,NNE,32,0.0,1.0,95,0.18,,,1.01,weatherlink.com 1.10,2013-03-10 21:56:00,
2013-03-10 17:11:00,56.8,55.0,29.86,North,354,0.0,1.0,95,0.12,,,1.02,weatherlink.com 1.10,2013-03-10 22:11:00,
2013-03-10 17:26:00,56.6,55.0,29.86,NNW,335,0.0,3.0,95,0.04,,,1.03,weatherlink.com 1.10,2013-03-10 22:26:00,
2013-03-10 17:41:00,56.3,55.0,29.85,NE,46,0.0,1.0,95,0.04,,,1.04,weatherlink.com 1.10,2013-03-10 22:41:00,
2013-03-10 17:56:00,55.4,54.0,29.85,NNW,341,0.0,3.0,95,0.04,,,1.05,weatherlink.com 1.10,2013-03-10 22:56:00,
2013-03-10 18:11:00,55.1,54.0,29.85,NE,50,0.0,4.0,95,0.02,,,1.05,weatherlink.com 1.10,2013-03-10 23:11:00,
2013-03-10 18:41:00,54.6,53.0,29.85,ENE,68,3.0,3.0,95,0.02,,,1.06,weatherlink.com 1.10,2013-03-10 23:41:00,
2013-03-10 18:56:00,54.3,53.0,29.87,ENE,67,0.0,2.0,95,0.01,,,1.06,weatherlink.com 1.10,2013-03-10 23:56:00,
2013-03-10 19:11:00,54.0,53.0,29.87,East,80,1.0,2.0,95,0.02,,,1.07,weatherlink.com 1.10,2013-03-11 00:11:00,
2013-03-10 19:41:00,53.7,52.0,29.88,ENE,71,0.0,1.0,95,0.01,,,1.07,weatherlink.com 1.10,2013-03-11 00:41:00,
2013-03-10 20:11:00,53.7,52.0,29.89,East,84,2.0,2.0,95,0.00,,,1.07,weatherlink.com 1.10,2013-03-11 01:11:00,
2013-03-10 20:26:00,53.7,52.0,29.89,ENE,61,0.0,3.0,95,0.00,,,1.07,weatherlink.com 1.10,2013-03-11 01:26:00,
2013-03-10 20:41:00,53.6,52.0,29.91,East,84,0.0,1.0,95,0.00,,,1.07,weatherlink.com 1.10,2013-03-11 01:41:00,
2013-03-10 20:56:00,53.9,53.0,29.91,East,84,0.0,1.0,95,0.00,,,1.07,weatherlink.com 1.10,2013-03-11 01:56:00,
2013-03-10 21:11:00,53.8,52.0,29.91,East,84,0.0,1.0,95,0.00,,,1.07,weatherlink.com 1.10,2013-03-11 02:11:00,
2013-03-10 21:26:00,53.8,52.0,29.92,East,84,0.0,0.0,95,0.00,,,1.07,weatherlink.com 1.10,2013-03-11 02:26:00,
2013-03-10 21:56:00,53.9,53.0,29.94,East,84,0.0,1.0,95,0.00,,,1.07,weatherlink.com 1.10,2013-03-11 02:56:00,
2013-03-10 22:11:00,53.9,53.0,29.93,WNW,302,0.0,1.0,95,0.00,,,1.07,weatherlink.com 1.10,2013-03-11 03:11:00,
2013-03-10 22:41:00,54.1,53.0,29.95,WNW,299,0.0,2.0,96,0.00,,,1.07,weatherlink.com 1.10,2013-03-11 03:41:00,
2013-03-10 23:11:00,54.3,53.0,29.95,West,276,1.0,2.0,96,0.00,,,1.07,weatherlink.com 1.10,2013-03-11 04:11:00,
2013-03-10 23:26:00,55.8,53.0,29.95,WNW,301,4.0,8.0,91,0.00,,,1.07,weatherlink.com 1.10,2013-03-11 04:26:00,
2013-03-10 23:41:00,56.3,52.0,29.95,NW,308,3.0,9.0,85,0.00,,,1.07,weatherlink.com 1.10,2013-03-11 04:41:00,